カタログに戻る

FENGYUN 1C DEB

運用中PO
NORAD 31038·DEBRIS·🇨🇳 China

打ち上げ May 10, 1999 から Taiyuan Satellite Launch Center

Loading…

次のパス (今後24時間)

TLE

最新Source: Space-Track

元期: Sep 14, 2026, 02:10 UTC

1 31038U 99025BEG 26257.09031679  .00001117  00000-0  30929-3 0  9993
2 31038  99.0119   3.3124 0084454 127.7657 233.1223 14.46755733 22116

AllMySatでFENGYUN 1C DEBをリアルタイム追跡

Download on the App Store